Location: Arrien
(42.8963°N, 1.0429°E)
Time: 02:57:47
(UTC+00:00)

NOAA 15 - Pass Details

Date: 21 April 2026
Orbit: 793 x 810 km, 98.5° (Epoch: 11 May)

Event Time Altitude Azimuth Distance (km) Brightness Sun altitude
Rises 19:41:51 0° 213° (SSW) 3,310 7.9 -10.4°
Reaches altitude 10° 19:45:15 10° 236° (SW) 2,383 7.4 -11.0°
Maximum altitude 19:48:11 15° 270° (W) 2,056 7.7 -11.5°
Drops below altitude 10° 19:51:07 10° 305° (NW) 2,387 8.6 -11.9°
Sets 19:54:33 0° 328° (NNW) 3,319 9.0 -12.5°
